[[{"header":{"parameterUnit":"m.s-1","parameterCategory":1,"la1":30.2991,"la2":30.254,"lo1":-89.0895,"lo2":-89.0444,"dx":0.0017,"dy":0.0017,"nx":28,"ny":28,"refTime":"2022-12-29T15:00:00:Z","depth":0,"parameterNumber":2,"parameterNumberName":"U-component_of_WINDS"},"data":[0,0,0,0,0,0,0,0,0,0,0,0,0,0,0,0,0,0,0,0,0,0,0,0,0,0,0,0,0,0,0,0,0,0,0,0,0,0,0,0,0,0,0,0,0,0,0,0,0,0,0,0,0,0,0,0,0,0,-2.3793,-2.3795,0,-2.3974,-2.3976,-2.3978,-2.404,-2.404,-2.4039,-2.4038,-2.4226,-2.4231,-2.4237,0,0,0,0,0,0,0,0,0,0,0,0,0,-2.3506,-2.3511,-2.3793,-2.3795,-2.3798,-2.3973,-2.3976,-2.3978,-2.4041,-2.404,-2.4039,-2.4038,-2.4224,-2.423,-2.4237,0,0,0,0,0,0,0,0,0,0,0,0,0,-2.3653,-2.3513,-2.3793,-2.385,-2.3857,-2.3973,-2.3976,-2.3979,-2.4041,-2.404,-2.4039,-2.4038,-2.4222,-2.423,-2.4238,-2.4311,0,0,-2.4264,-2.4268,0,0,0,0,0,0,0,0,-2.3645,-2.3663,-2.3839,-2.3846,-2.3854,-2.3983,-2.3943,-2.409,-2.4041,-2.3971,-2.4038,-2.4037,-2.4146,-2.4161,-2.4197,-2.432,-2.4328,-2.4265,-2.427,-2.4273,-2.4276,0,0,0,0,0,0,0,-2.3634,-2.3656,-2.3865,-2.3842,-2.3851,-2.3868,-2.3887,-2.3971,-2.4062,-2.3977,-2.3982,-2.4002,-2.415,-2.4189,-2.4202,-2.4331,-2.4264,-2.4272,-2.4277,-2.428,-2.4524,-2.4526,0,0,0,0,0,0,-2.3614,-2.3647,-2.3859,-2.387,-2.3745,-2.3874,-2.3896,-2.3943,-2.4061,-2.4078,-2.4003,-2.4005,-2.4175,-2.4192,-2.4209,-2.4303,-2.4273,-2.4281,-2.4286,-2.4523,-2.4525,-2.4526,0,0,0,0,0,0,-2.3608,-2.3632,-2.3852,-2.376,-2.3789,-2.388,-2.3932,-2.3947,-2.3986,-2.4081,-2.4098,-2.4026,-2.4174,-2.4197,-2.4285,-2.431,-2.4285,-2.4293,-2.4521,-2.4523,-2.4525,-2.4491,0,0,0,0,0,0,-2.3599,-2.363,-2.3658,-2.376,-2.3794,-2.3924,-2.3934,-2.3951,-2.4,-2.4004,-2.4107,-2.4123,-2.4175,-2.4272,-2.4294,-2.4321,-2.4299,-2.4519,-2.4522,-2.4525,-2.449,-2.4491,-2.4492,0,0,0,0,0,-2.3589,-2.3641,-2.3659,-2.3684,-2.383,-2.3925,-2.3945,-2.4003,-2.4001,-2.4031,-2.4092,-2.412,-2.4304,-2.4281,-2.4305,-2.4336,-2.4518,-2.4521,-2.4524,-2.4489,-2.4491,-2.4492,0,0,0,0,0,0,-2.354,-2.3655,-2.3676,-2.3763,-2.3834,-2.3936,-2.3975,-2.4003,-2.4077,-2.4077,-2.4148,-2.417,-2.4254,-2.4304,-2.4276,-2.4413,-2.4413,-2.4421,-2.4378,-2.438,-2.4381,-2.4367,-2.4306,0,0,0,0,0,-2.3539,-2.3605,-2.3703,-2.377,-2.3805,-2.3883,-2.3927,-2.3966,-2.4043,-2.4073,-2.4141,-2.4215,-2.429,-2.4338,-2.4412,-2.4498,-2.4522,-2.4531,-2.4532,-2.4532,-2.4539,-2.4589,-2.4594,-2.4536,-2.4536,-2.4536,0,0,-2.3538,-2.3609,-2.3647,-2.3762,-2.3822,-2.389,-2.3908,-2.398,-2.4032,-2.4084,-2.4172,-2.4225,-2.4312,-2.44,-2.4442,-2.4444,-2.456,-2.4536,-2.4536,-2.4543,-2.4593,-2.4598,-2.4603,-2.4539,-2.4538,-2.4538,0,0,-2.3571,-2.3632,-2.3695,-2.3754,-2.3843,-2.3895,-2.391,-2.4009,-2.4045,-2.4134,-2.4175,-2.4239,-2.4366,-2.4427,-2.4474,-2.4531,-2.456,-2.4554,-2.456,-2.4608,-2.4613,-2.4617,-2.4638,-2.4645,-2.456,-2.4559,-2.4559,0,-2.3559,-2.3663,-2.3723,-2.3793,-2.3843,-2.3893,-2.3958,-2.4013,-2.4122,-2.4156,-2.4157,-2.4318,-2.438,-2.4483,-2.4497,-2.4534,-2.4554,-2.4542,-2.4607,-2.4612,-2.4617,-2.4638,-2.4646,-2.4558,-2.4558,-2.4558,-2.4559,0,-2.3644,-2.3715,-2.3756,-2.3859,-2.3914,-2.3981,-2.4052,-2.4101,-2.4135,-2.4187,-2.4278,-2.4355,-2.4445,-2.4473,-2.4507,-2.4581,-2.458,-2.4593,-2.4594,-2.462,-2.4641,-2.465,-2.4556,-2.4557,-2.4557,-2.4558,0,0,-2.3652,-2.3788,-2.3802,-2.385,-2.3953,-2.401,-2.4079,-2.4167,-2.4208,-2.4282,-2.4343,-2.4449,-2.4462,-2.4516,-2.4558,-2.46,-2.4641,-2.4608,-2.4611,-2.4612,-2.4729,-2.4719,-2.4727,-2.4661,-2.4662,-2.4664,-2.4722,0,-2.3699,-2.3824,-2.3881,-2.3982,-2.4049,-2.4098,-2.4159,-2.4229,-2.428,-2.4346,-2.4403,-2.4477,-2.4488,-2.4521,-2.4565,-2.4627,-2.4666,-2.4623,-2.4719,-2.4722,-2.4696,-2.4738,-2.4727,-2.4778,-2.473,-2.4732,-2.4733,0,-2.3771,-2.3844,-2.3951,-2.4046,-2.4077,-2.413,-2.4216,-2.4278,-2.4359,-2.4393,-2.4453,-2.4494,-2.457,-2.4565,-2.4672,-2.4642,-2.4685,-2.4721,-2.4725,-2.4736,-2.4729,-2.4751,-2.4796,-2.4803,-2.4746,-2.4745,-2.4744,0,-2.3766,-2.3892,-2.3972,-2.4012,-2.4125,-2.4161,-2.4211,-2.4291,-2.434,-2.4415,-2.4449,-2.4532,-2.4578,-2.4642,-2.4704,-2.4695,-2.4806,-2.4806,-2.4837,-2.4836,-2.4859,-2.4856,-2.4911,-2.4885,-2.4885,-2.4885,-2.4884,0,-2.3814,-2.3877,-2.3972,-2.4021,-2.4094,-2.416,-2.4231,-2.4284,-2.4355,-2.4416,-2.4464,-2.4521,-2.4599,-2.4667,-2.4716,-2.4798,-2.4818,-2.4849,-2.4861,-2.4845,-2.4841,-2.4874,-2.4872,-2.4887,-2.4886,-2.4886,-2.4885,0,-2.3821,-2.3887,-2.3978,-2.4077,-2.4104,-2.4153,-2.4239,-2.429,-2.4343,-2.442,-2.4442,-2.4526,-2.4608,-2.4676,-2.4784,-2.4817,-2.4902,-2.4917,-2.4875,-2.4881,-2.4909,-2.4906,-2.4988,-2.5002,-2.4965,-2.4965,-2.4965,0,-2.3847,-2.3897,-2.4002,-2.4046,-2.4094,-2.4165,-2.4215,-2.4282,-2.4333,-2.4429,-2.4469,-2.4554,-2.4625,-2.4754,-2.4825,-2.4908,-2.4925,-2.4948,-2.4938,-2.492,-2.4927,-2.4923,-2.4929,-2.4949,-2.4949,-2.4949,-2.4949,0,-2.3886,-2.3917,-2.3987,-2.4069,-2.4128,-2.4197,-2.4266,-2.43,-2.438,-2.4435,-2.4518,-2.4574,-2.4684,-2.4768,-2.4858,-2.491,-2.4944,-2.4952,-2.4964,-2.4948,-2.4921,-2.4937,-2.4877,-2.495,-2.495,-2.4949,-2.4949,-2.4949,-2.3905,-2.3952,-2.4033,-2.411,-2.4169,-2.4233,-2.4286,-2.4346,-2.4416,-2.451,-2.4545,-2.4631,-2.4713,-2.4837,-2.489,-2.4959,-2.4963,-2.498,-2.4984,-2.4988,-2.4986,-2.4909,-2.4975,-2.4976,-2.4976,-2.4976,-2.4976,0,-2.3948,-2.4002,-2.4072,-2.4168,-2.4229,-2.4254,-2.4332,-2.4382,-2.4457,-2.4529,-2.4598,-2.4695,-2.4777,-2.4855,-2.4941,-2.4982,-2.4999,-2.5002,-2.5,-2.5012,-2.4976,-2.4958,-2.4987,-2.4987,-2.4987,-2.4987,-2.4987,-2.4987,-2.3977,-2.4058,-2.4098,-2.4209,-2.4264,-2.4347,-2.439,-2.445,-2.4508,-2.4614,-2.4682,-2.4731,-2.4807,-2.4899,-2.4976,-2.4997,-2.5027,-2.5026,-2.5051,-2.5016,-2.5014,-2.5012,-2.4995,-2.5031,-2.5032,-2.5081,-2.5081,-2.5081]},{"header":{"parameterUnit":"m.s-1","parameterCategory":1,"la1":30.2991,"la2":30.254,"lo1":-89.0895,"lo2":-89.0444,"dx":0.0017,"dy":0.0017,"nx":28,"ny":28,"refTime":"2022-12-29T15:00:00:Z","depth":0,"parameterNumber":3,"parameterNumberName":"V-component_of_WINDS"},"data":[0,0,0,0,0,0,0,0,0,0,0,0,0,0,0,0,0,0,0,0,0,0,0,0,0,0,0,0,0,0,0,0,0,0,0,0,0,0,0,0,0,0,0,0,0,0,0,0,0,0,0,0,0,0,0,0,0,0,7.1618,7.162,0,7.1766,7.1767,7.1769,7.1784,7.1783,7.1782,7.178,7.1928,7.1933,7.1939,0,0,0,0,0,0,0,0,0,0,0,0,0,7.1348,7.1353,7.1618,7.162,7.1622,7.1765,7.1767,7.1769,7.1785,7.1783,7.1781,7.1779,7.1926,7.1933,7.1939,0,0,0,0,0,0,0,0,0,0,0,0,0,7.1477,7.1354,7.1618,7.1647,7.1651,7.1765,7.1767,7.177,7.1785,7.1783,7.1781,7.1779,7.1924,7.1932,7.194,7.2034,0,0,7.1965,7.1968,0,0,0,0,0,0,0,0,7.147,7.1487,7.1641,7.1645,7.165,7.1754,7.1726,7.1859,7.1786,7.1734,7.178,7.1777,7.1872,7.1884,7.1917,7.2041,7.2048,7.1965,7.197,7.1974,7.1976,0,0,0,0,0,0,0,7.1461,7.1481,7.1676,7.1643,7.1648,7.1652,7.1668,7.1752,7.1814,7.1738,7.174,7.1757,7.1874,7.1909,7.192,7.205,7.1965,7.1972,7.1977,7.198,7.2262,7.2265,0,0,0,0,0,0,7.1447,7.1473,7.1672,7.1681,7.1552,7.1659,7.1676,7.1723,7.1813,7.1824,7.1759,7.1757,7.1896,7.1911,7.1926,7.2044,7.1973,7.1981,7.1986,7.2259,7.2263,7.2266,0,0,0,0,0,0,7.1441,7.1464,7.1666,7.1577,7.1603,7.1666,7.1718,7.1727,7.1762,7.1829,7.1839,7.1784,7.1895,7.1914,7.2008,7.205,7.1985,7.1992,7.2256,7.226,7.2264,7.2281,0,0,0,0,0,0,7.1433,7.1462,7.1499,7.1578,7.1608,7.1746,7.172,7.1732,7.1776,7.1776,7.1854,7.1865,7.1895,7.1996,7.2016,7.2059,7.1998,7.2253,7.2258,7.2263,7.2277,7.2285,7.2292,0,0,0,0,0,7.1423,7.1496,7.1501,7.1524,7.1655,7.1749,7.1766,7.1799,7.1779,7.1817,7.186,7.1863,7.2041,7.2006,7.2028,7.2075,7.225,7.2257,7.2262,7.2274,7.2283,7.2292,0,0,0,0,0,0,7.1419,7.1507,7.1513,7.1614,7.1674,7.1751,7.1799,7.1808,7.1874,7.187,7.1908,7.1926,7.2019,7.2056,7.2014,7.2172,7.2144,7.2155,7.2145,7.2155,7.2162,7.2152,7.2005,0,0,0,0,0,7.143,7.1499,7.1572,7.1654,7.1684,7.1736,7.1778,7.1799,7.1862,7.1887,7.1937,7.1997,7.2067,7.2113,7.218,7.2282,7.23,7.2325,7.2332,7.2338,7.2348,7.2406,7.2419,7.2285,7.2285,7.2285,0,0,7.1452,7.1509,7.155,7.1655,7.1703,7.1774,7.1758,7.1832,7.1885,7.1898,7.1991,7.2029,7.2099,7.2198,7.2244,7.2232,7.2388,7.2346,7.235,7.2357,7.2414,7.2426,7.2438,7.2289,7.2289,7.2288,0,0,7.1531,7.158,7.1656,7.1706,7.178,7.1815,7.1833,7.191,7.1937,7.203,7.2042,7.2105,7.2224,7.2275,7.2315,7.2415,7.2421,7.2436,7.2475,7.2532,7.2543,7.2552,7.259,7.2603,7.2445,7.2445,7.2445,0,7.155,7.1658,7.1693,7.1769,7.1815,7.1831,7.1908,7.1954,7.2046,7.2078,7.2063,7.2215,7.2263,7.2375,7.2399,7.2431,7.2454,7.2428,7.2538,7.2548,7.2558,7.2594,7.2608,7.2446,7.2446,7.2446,7.2446,0,7.1679,7.1753,7.1805,7.1896,7.1948,7.2023,7.207,7.2117,7.2134,7.217,7.2266,7.2325,7.2406,7.2434,7.2449,7.2549,7.2539,7.2531,7.2504,7.2572,7.2607,7.262,7.2448,7.2448,7.2447,7.2447,0,0,7.1758,7.187,7.1888,7.1931,7.2015,7.2073,7.215,7.2231,7.2272,7.2335,7.2401,7.2503,7.2496,7.2543,7.2565,7.2614,7.2692,7.26,7.2603,7.2617,7.2808,7.2815,7.283,7.2696,7.2699,7.2701,7.2802,0,7.1848,7.1987,7.2021,7.214,7.221,7.2227,7.2294,7.2353,7.2389,7.2454,7.2493,7.2565,7.255,7.2579,7.2629,7.2672,7.2731,7.2665,7.2759,7.2762,7.2743,7.2848,7.2856,7.2949,7.2816,7.2818,7.282,0,7.1972,7.204,7.2166,7.2244,7.2274,7.2334,7.2412,7.2473,7.2541,7.2564,7.2617,7.2634,7.2715,7.2683,7.2795,7.275,7.279,7.2817,7.2821,7.2833,7.2796,7.2865,7.2979,7.2994,7.2841,7.284,7.2838,0,7.202,7.2144,7.2236,7.2271,7.2363,7.2405,7.2445,7.2511,7.2558,7.2625,7.2657,7.2732,7.2774,7.2832,7.2869,7.2842,7.298,7.295,7.3002,7.3001,7.3031,7.3029,7.3156,7.3053,7.3053,7.3053,7.3053,0,7.2119,7.2195,7.2259,7.2316,7.2403,7.2441,7.2526,7.2566,7.2625,7.269,7.2708,7.2768,7.2813,7.288,7.2909,7.2999,7.3017,7.3038,7.3046,7.3038,7.3036,7.3066,7.3062,7.3057,7.3056,7.3055,7.3055,0,7.2188,7.2234,7.2336,7.2415,7.2437,7.2498,7.2566,7.2622,7.2658,7.274,7.2762,7.282,7.2899,7.2942,7.3041,7.3061,7.3162,7.3165,7.314,7.3144,7.3194,7.319,7.3347,7.337,7.325,7.3251,7.3252,0,7.2249,7.2309,7.2395,7.2441,7.2483,7.2555,7.2604,7.2644,7.2694,7.2777,7.2823,7.2904,7.2971,7.3098,7.3148,7.3224,7.323,7.328,7.3242,7.3233,7.3234,7.3231,7.3238,7.3287,7.3288,7.3289,7.329,0,7.2352,7.2373,7.2443,7.2522,7.2581,7.2644,7.2707,7.2743,7.2794,7.2849,7.2932,7.2984,7.3086,7.3167,7.3248,7.3288,7.3299,7.3301,7.3318,7.3312,7.3296,7.3308,7.3161,7.3298,7.3297,7.3297,7.3296,7.3296,7.2421,7.2476,7.2547,7.2625,7.2677,7.2736,7.2793,7.2838,7.2908,7.2996,7.3015,7.3103,7.317,7.328,7.3323,7.3392,7.3382,7.3405,7.3412,7.3417,7.3421,7.3284,7.3406,7.3406,7.3406,7.3406,7.3406,0,7.2528,7.2574,7.2646,7.2735,7.2797,7.2802,7.2872,7.2923,7.3001,7.3063,7.313,7.3226,7.3304,7.3361,7.3442,7.3486,7.3493,7.3506,7.3504,7.3514,7.3424,7.3403,7.35,7.35,7.35,7.35,7.35,7.35,7.2591,7.2685,7.2714,7.2835,7.288,7.2968,7.3008,7.3063,7.3113,7.322,7.3286,7.3323,7.3384,7.3469,7.3542,7.3557,7.3587,7.36,7.3615,7.353,7.352,7.3511,7.3491,7.3605,7.3606,7.3701,7.3701,7.3702]}]]